• In Kazakhstan
  • List of Countries
  • For 7 days
  • Water Temperature
  • Satellite Maps
  • Weather Map
  • News
  • Weather Widgets
  • user-avatar
    Login

    Hourly Weather Hobart

    Today, 23 November, Thursday

    Time Temperature Precipitation Wind Pressure Humidity
    00:00 +14°C° 0 mm 3 mps 749 mmHg 77%
    01:00 +14°C° 0 mm 3 mps 749 mmHg 77%
    02:00 +14°C° 0 mm 3 mps 748 mmHg 79%
    03:00 +13°C° 0 mm 3 mps 748 mmHg 80%
    04:00 +13°C° 0 mm 3 mps 748 mmHg 81%
    05:00 +16°C° 0 mm 3 mps 747 mmHg 73%
    06:00 +18°C° 0 mm 3 mps 747 mmHg 66%
    07:00 +20°C° 0 mm 3 mps 747 mmHg 58%
    08:00 +24°C° 0 mm 3 mps 747 mmHg 50%
    09:00 +27°C° 0 mm 3 mps 747 mmHg 41%
    10:00 +29°C° 0 mm 3 mps 747 mmHg 32%
    11:00 +30°C° 0 mm 4 mps 747 mmHg 30%
    12:00 +32°C° 0 mm 4 mps 746 mmHg 28%
    13:00 +33°C° 0 mm 4 mps 746 mmHg 26%
    14:00 +30°C° 0 mm 4 mps 746 mmHg 33%
    15:00 +29°C° 0 mm 4 mps 746 mmHg 39%
    16:00 +26°C° 0 mm 4 mps 746 mmHg 52%
    17:00 +24°C° 0.1 mm 3 mps 746 mmHg 59%
    18:00 +21°C° 0.1 mm 3 mps 746 mmHg 67%
    19:00 +19°C° 0.1 mm 2 mps 746 mmHg 74%
    20:00 +18°C° 0.2 mm 2 mps 746 mmHg 81%
    21:00 +16°C° 0.2 mm 1 mps 746 mmHg 87%
    22:00 +14°C° 0 mm 1 mps 746 mmHg 93%
    23:00 +14°C° 0.1 mm 1 mps 746 mmHg 93%

    Tomorrow, 24 November, Friday

    Time Temperature Precipitation Wind Pressure Humidity
    00:00 +14°C° 0.1 mm 1 mps 746 mmHg 93%
    01:00 +13°C° 0.1 mm 1 mps 746 mmHg 94%
    02:00 +13°C° 0 mm 1 mps 746 mmHg 93%
    03:00 +13°C° 0 mm 1 mps 746 mmHg 93%
    04:00 +13°C° 0 mm 1 mps 745 mmHg 93%
    05:00 +15°C° 0 mm 1 mps 746 mmHg 85%
    06:00 +18°C° 0 mm 1 mps 746 mmHg 78%
    07:00 +21°C° 0 mm 1 mps 746 mmHg 70%
    08:00 +24°C° 0 mm 1 mps 746 mmHg 60%
    09:00 +27°C° 0 mm 1 mps 746 mmHg 49%
    10:00 +30°C° 0 mm 1 mps 746 mmHg 39%
    11:00 +29°C° 0.1 mm 2 mps 746 mmHg 44%
    12:00 +28°C° 0.1 mm 3 mps 746 mmHg 48%
    13:00 +27°C° 0.1 mm 3 mps 746 mmHg 53%
    14:00 +25°C° 0.8 mm 3 mps 746 mmHg 63%
    15:00 +23°C° 0.8 mm 2 mps 746 mmHg 72%
    16:00 +21°C° 0.8 mm 2 mps 746 mmHg 82%
    17:00 +21°C° 0.2 mm 1 mps 746 mmHg 85%
    18:00 +20°C° 0.2 mm 1 mps 746 mmHg 88%
    19:00 +19°C° 0.2 mm 1 mps 746 mmHg 92%
    20:00 +18°C° 0 mm 1 mps 747 mmHg 94%
    21:00 +16°C° 0 mm 1 mps 747 mmHg 96%
    22:00 +14°C° 0 mm 0 mps 747 mmHg 98%
    23:00 +14°C° 0 mm 0 mps 747 mmHg 98%

    Day after tomorrow, 25 November, Saturday

    Time Temperature Precipitation Wind Pressure Humidity
    00:00 +15°C° 0 mm 1 mps 747 mmHg 98%
    01:00 +14°C° 0 mm 1 mps 747 mmHg 99%
    02:00 +14°C° 0 mm 1 mps 747 mmHg 98%
    03:00 +15°C° 0 mm 1 mps 747 mmHg 98%
    04:00 +15°C° 0 mm 1 mps 747 mmHg 98%
    05:00 +16°C° 0 mm 1 mps 747 mmHg 93%
    06:00 +18°C° 0 mm 1 mps 747 mmHg 89%
    07:00 +17°C° 0 mm 0 mps 748 mmHg 85%
    08:00 +23°C° 0 mm 1 mps 748 mmHg 71%
    09:00 +26°C° 0 mm 1 mps 748 mmHg 58%
    10:00 +29°C° 0 mm 1 mps 748 mmHg 44%
    11:00 +27°C° 0.4 mm 2 mps 748 mmHg 56%
    12:00 +25°C° 0.4 mm 2 mps 747 mmHg 67%
    13:00 +22°C° 0.4 mm 3 mps 747 mmHg 78%
    14:00 +23°C° 0.6 mm 2 mps 747 mmHg 79%
    15:00 +23°C° 0.6 mm 2 mps 747 mmHg 79%
    16:00 +23°C° 0.6 mm 2 mps 747 mmHg 79%
    17:00 +23°C° 0 mm 2 mps 747 mmHg 82%
    18:00 +21°C° 0 mm 2 mps 747 mmHg 85%
    19:00 +21°C° 0 mm 1 mps 747 mmHg 88%
    20:00 +20°C° 0 mm 1 mps 747 mmHg 91%
    21:00 +19°C° 0 mm 1 mps 747 mmHg 94%
    22:00 +18°C° 0 mm 1 mps 747 mmHg 97%
    23:00 +18°C° 0.3 mm 1 mps 747 mmHg 96%

    26 November, Sunday

    Time Temperature Precipitation Wind Pressure Humidity
    00:00 +18°C° 0.3 mm 1 mps 746 mmHg 95%
    01:00 +18°C° 0.3 mm 1 mps 746 mmHg 95%
    02:00 +18°C° 0.2 mm 1 mps 746 mmHg 95%
    03:00 +18°C° 0.2 mm 1 mps 745 mmHg 95%
    04:00 +18°C° 0.2 mm 1 mps 745 mmHg 96%
    05:00 +18°C° 0.5 mm 1 mps 745 mmHg 95%
    06:00 +19°C° 0.5 mm 1 mps 744 mmHg 95%
    07:00 +18°C° 0.5 mm 2 mps 744 mmHg 95%
    08:00 +20°C° 0.4 mm 2 mps 744 mmHg 88%
    09:00 +22°C° 0.4 mm 3 mps 744 mmHg 81%
    10:00 +25°C° 0.4 mm 3 mps 744 mmHg 74%
    11:00 +24°C° 1.3 mm 3 mps 744 mmHg 76%
    12:00 +24°C° 1.3 mm 3 mps 743 mmHg 79%
    13:00 +24°C° 1.3 mm 3 mps 743 mmHg 82%
    14:00 +22°C° 1.7 mm 3 mps 743 mmHg 84%
    15:00 +22°C° 1.7 mm 3 mps 743 mmHg 87%
    16:00 +21°C° 1.7 mm 3 mps 743 mmHg 90%
    17:00 +20°C° 1.1 mm 3 mps 743 mmHg 92%
    18:00 +19°C° 1.1 mm 3 mps 744 mmHg 93%
    19:00 +18°C° 1.1 mm 3 mps 745 mmHg 95%
    20:00 +17°C° 0.1 mm 3 mps 745 mmHg 96%
    21:00 +16°C° 0.1 mm 3 mps 746 mmHg 97%
    22:00 +14°C° 0.1 mm 3 mps 747 mmHg 98%
    23:00 +14°C° 0.1 mm 3 mps 747 mmHg 98%

    27 November, Monday

    Time Temperature Precipitation Wind Pressure Humidity
    00:00 +14°C° 0.1 mm 3 mps 747 mmHg 98%
    01:00 +14°C° 0.1 mm 3 mps 747 mmHg 98%
    02:00 +13°C° 0.1 mm 3 mps 747 mmHg 98%
    03:00 +14°C° 0.1 mm 2 mps 748 mmHg 98%
    04:00 +13°C° 0.1 mm 2 mps 748 mmHg 98%
    05:00 +14°C° 0 mm 2 mps 749 mmHg 95%
    06:00 +15°C° 0 mm 2 mps 749 mmHg 92%
    07:00 +16°C° 0 mm 2 mps 750 mmHg 89%
    08:00 +18°C° 0 mm 2 mps 750 mmHg 77%
    09:00 +20°C° 0 mm 2 mps 750 mmHg 65%
    10:00 +23°C° 0 mm 2 mps 751 mmHg 53%
    11:00 +22°C° 0 mm 3 mps 751 mmHg 51%
    12:00 +24°C° 0 mm 3 mps 751 mmHg 49%
    13:00 +24°C° 0 mm 3 mps 751 mmHg 47%
    14:00 +22°C° 0 mm 4 mps 751 mmHg 50%
    15:00 +22°C° 0 mm 4 mps 751 mmHg 53%
    16:00 +21°C° 0 mm 4 mps 751 mmHg 56%
    17:00 +20°C° 0 mm 3 mps 752 mmHg 62%
    18:00 +18°C° 0 mm 3 mps 752 mmHg 68%
    19:00 +16°C° 0 mm 2 mps 753 mmHg 74%
    20:00 +15°C° 0 mm 2 mps 753 mmHg 82%
    21:00 +13°C° 0 mm 1 mps 754 mmHg 89%
    22:00 +11°C° 0 mm 0 mps 754 mmHg 97%
    23:00 +10°C° 0 mm 0 mps 754 mmHg 97%

    28 November, Tuesday

    Time Temperature Precipitation Wind Pressure Humidity
    00:00 +11°C° 0 mm 1 mps 754 mmHg 98%
    01:00 +11°C° 0 mm 1 mps 754 mmHg 98%
    02:00 +10°C° 0 mm 1 mps 754 mmHg 98%
    03:00 +10°C° 0 mm 1 mps 754 mmHg 98%
    04:00 +10°C° 0 mm 1 mps 754 mmHg 98%
    05:00 +12°C° 0 mm 1 mps 755 mmHg 90%
    06:00 +14°C° 0 mm 1 mps 755 mmHg 82%
    07:00 +16°C° 0 mm 1 mps 756 mmHg 75%
    08:00 +19°C° 0 mm 1 mps 756 mmHg 66%
    09:00 +20°C° 0 mm 2 mps 756 mmHg 57%
    10:00 +24°C° 0 mm 2 mps 756 mmHg 49%
    11:00 +24°C° 0 mm 3 mps 756 mmHg 47%
    12:00 +25°C° 0 mm 3 mps 756 mmHg 44%
    13:00 +26°C° 0 mm 4 mps 756 mmHg 42%
    14:00 +25°C° 0 mm 4 mps 755 mmHg 44%
    15:00 +23°C° 0 mm 4 mps 755 mmHg 46%
    16:00 +23°C° 0 mm 4 mps 755 mmHg 48%
    17:00 +21°C° 0 mm 4 mps 755 mmHg 56%
    18:00 +19°C° 0 mm 4 mps 755 mmHg 64%
    19:00 +17°C° 0 mm 4 mps 756 mmHg 72%
    20:00 +14°C° 0 mm 3 mps 756 mmHg 80%
    21:00 +13°C° 0 mm 3 mps 756 mmHg 89%
    22:00 +11°C° 0 mm 3 mps 756 mmHg 97%
    23:00 +11°C° 0 mm 3 mps 756 mmHg 97%
    Show more